STARLINK-36104

Last updated on Fri Dec 19 2025 00:02:08 GMT+0000 (Coordinated Universal Time)

1 66964U 25288F 25352.58336806 -.01255092 00000+0 -55445-2 0 9992 2 66964 43.0010 131.3982 0001568 272.7863 301.5221 15.86055923 2777
UTC large
Height (km)
Speed (km/s)
/
Latitude / Longitude
Inclination (degrees)
Orbital Period (minutes)
Azimuth
Elevation
Range (km)
Doppler Factor

Next 0 passes for location: London (51.5072 / 0.1276)

Sorry there are no passes over London.